Theta_e
299 299 300 300 301 301 301 301 301 302 302 302 302 302 303 304 304 305 306 305 306 306 307 309 311 313 315 317 321 325 328 330 332 333 333 332 332 331 332 332 331 331 332 332 332 332 332 332 332 332 333 332 331 331 331 331 330 330 329 328 327 326 325 323 321 321 324 326 328 328 329 329 328 330 330 331 332 332 328 333 334 334 333 333 332
299 299 300 301 300 301 301 301 302 302 301 301 302 302 303 303 304 304 304 304 305 306 307 309 311 312 313 316 320 324 327 328 330 332 332 331 331 331 331 331 331 331 331 331 332 332 332 332 332 332 333 332 332 331 331 331 330 329 329 328 327 327 327 324 323 322 321 324 326 327 328 328 328 330 329 330 331 331 330 331 332 333 332 333 332
300 300 300 300 300 301 301 301 302 301 301 301 301 302 303 304 305 304 304 304 306 306 307 309 310 311 313 315 318 322 326 327 329 330 331 331 331 331 331 331 330 330 330 330 331 332 331 331 332 332 333 332 332 332 332 331 331 330 329 329 328 328 328 327 325 323 322 323 326 326 327 327 328 329 329 331 332 331 330 330 331 331 331 333 333
300 300 300 300 300 300 301 301 301 301 300 300 301 302 303 304 306 305 305 305 305 307 309 309 310 311 312 314 317 321 324 327 328 329 330 330 330 330 330 330 330 330 330 330 331 331 331 331 331 332 332 331 332 332 332 332 331 331 330 330 329 328 329 328 327 325 325 323 324 325 327 327 327 329 330 331 331 330 330 331 331 330 330 330 331
299 299 299 299 300 300 301 301 300 300 299 300 300 301 303 305 306 307 307 307 308 309 311 312 312 312 313 315 318 321 324 326 327 328 329 330 330 330 331 330 330 330 330 330 332 331 331 331 331 332 332 331 331 331 332 331 331 331 330 330 330 329 329 329 328 327 325 324 324 326 328 328 330 330 330 329 329 330 331 331 330 330 330 331 330
299 299 299 299 299 300 301 301 300 299 299 300 300 301 301 301 302 304 307 309 309 310 310 310 312 315 316 318 321 323 325 326 327 327 328 329 330 330 330 331 330 330 330 330 330 331 331 331 332 332 331 330 330 331 332 331 332 331 331 330 330 330 329 329 329 328 326 325 325 325 327 327 328 329 329 330 330 329 329 330 331 331 332 332 331
299 299 299 299 299 300 300 301 300 299 299 299 300 300 300 300 301 302 305 307 308 308 308 307 308 312 315 320 322 324 325 325 326 327 327 328 329 329 330 330 331 330 330 330 330 330 330 331 331 332 331 331 331 331 331 331 331 331 331 331 331 330 329 329 328 328 327 326 327 327 327 328 329 328 329 330 330 331 330 329 329 331 330 331 331
299 299 299 298 299 300 301 301 300 299 300 300 299 299 300 300 301 302 303 305 306 306 305 305 306 308 311 315 320 323 323 323 325 325 326 327 327 328 328 329 329 330 331 330 330 330 330 330 330 331 331 332 332 332 331 331 331 331 332 331 331 330 329 329 328 328 327 326 326 327 328 327 328 329 329 327 327 327 328 328 327 329 329 330 330
298 298 298 298 299 300 300 300 300 300 300 299 299 299 299 300 300 301 301 303 304 304 304 303 304 305 307 311 313 316 321 322 324 325 327 327 327 326 327 328 329 329 329 331 331 330 330 330 330 331 331 329 323 323 325 326 331 330 331 331 331 330 329 329 328 328 327 326 326 327 327 327 327 327 326 325 325 326 327 327 327 329 330 329 330
298 298 298 299 300 300 299 299 299 299 299 299 299 300 300 300 300 300 300 300 301 302 302 302 303 303 304 307 309 311 313 318 320 310 309 319 323 325 326 327 327 328 328 329 330 331 331 331 331 328 323 321 319 315 313 314 318 328 331 331 330 329 329 328 328 327 326 325 325 326 325 325 326 326 326 327 329 328 326 326 325 327 326 327 329
298 298 298 299 299 298 297 297 298 298 299 300 300 300 299 299 299 298 298 299 299 300 301 301 301 302 303 304 305 308 310 312 307 300 300 301 309 316 320 324 325 326 328 326 326 329 330 332 332 330 326 322 322 314 311 310 309 311 314 319 324 330 329 328 328 328 326 326 326 326 326 326 327 327 326 328 328 327 327 327 327 326 324 324 323
297 297 298 298 297 296 296 297 297 298 299 299 299 299 299 298 298 297 297 297 298 299 299 299 300 300 302 303 303 305 307 308 300 299 299 299 302 310 314 317 321 325 325 328 328 328 329 330 331 332 332 332 331 329 319 311 307 307 308 310 311 314 318 327 328 328 328 326 326 326 326 326 327 328 327 327 327 327 327 327 326 326 324 322 323
296 296 297 296 296 296 296 297 298 297 297 298 298 298 297 297 297 297 296 297 298 298 298 298 298 299 300 301 301 303 304 302 299 299 298 298 298 302 310 314 316 319 324 326 328 329 330 330 330 331 332 326 329 331 331 328 311 307 308 309 309 309 307 309 314 329 331 328 327 327 327 328 327 327 328 327 328 326 326 325 325 326 326 324 325
295 295 295 295 295 296 297 296 295 295 296 297 297 297 296 296 296 297 298 298 297 297 298 298 298 299 299 300 300 301 302 302 298 298 298 297 296 298 307 311 314 316 319 323 326 326 327 328 328 328 330 331 331 331 331 331 329 321 317 318 321 319 309 307 308 310 320 330 329 328 330 330 328 329 330 328 326 325 326 325 326 325 325 324 328
293 294 294 294 295 295 295 294 294 295 296 296 296 296 296 295 295 296 297 297 297 297 298 298 298 299 299 299 299 299 301 299 297 297 297 296 296 297 307 310 313 314 316 320 324 326 326 326 326 328 330 330 329 328 330 330 330 327 323 322 323 324 324 322 321 322 322 326 329 331 331 332 331 331 331 328 329 329 330 329 329 328 328 329 328
293 293 294 294 294 294 294 293 293 294 295 295 295 295 295 295 294 295 296 296 297 298 298 299 298 299 299 299 299 299 300 297 296 296 296 296 296 303 307 309 310 312 315 317 320 323 326 327 327 328 329 329 323 312 317 329 330 329 326 325 325 325 325 323 316 316 325 328 327 329 331 332 321 330 330 328 329 330 329 330 329 327 325 324 323
292 293 294 293 294 294 293 293 293 293 294 294 294 294 295 294 294 294 293 293 293 293 294 295 297 297 298 299 299 299 299 298 296 296 296 296 297 303 306 308 310 312 314 317 319 321 323 325 326 327 328 329 319 308 306 312 328 328 327 327 327 326 325 327 313 307 307 308 310 311 311 311 309 308 309 309 321 326 329 325 323 324 323 321 322
292 293 292 293 293 294 294 293 292 293 293 292 293 294 295 295 293 294 292 291 291 292 292 292 293 294 295 295 297 297 298 299 297 296 296 296 298 302 304 306 308 310 313 317 319 320 322 321 326 326 327 327 314 306 305 311 325 327 327 327 326 326 327 328 328 322 307 305 305 304 305 305 305 304 304 304 306 314 327 323 325 325 323 323 322
292 291 292 293 294 294 294 293 292 292 292 292 293 293 294 294 293 292 292 292 291 292 292 291 291 292 293 293 296 295 295 297 296 295 295 296 299 303 305 306 308 310 313 315 318 320 321 321 321 320 324 322 310 307 304 311 324 327 327 327 326 326 327 329 328 328 326 320 317 313 311 310 313 316 316 305 303 311 327 329 329 325 323 323 323
291 292 292 292 293 294 293 293 292 292 292 292 293 293 294 293 292 291 291 291 290 290 290 290 289 290 292 292 293 294 294 295 296 295 295 296 296 302 304 305 307 310 313 314 315 318 320 322 320 309 305 306 307 306 305 303 320 327 327 326 326 325 329 329 328 328 327 324 324 322 320 321 320 319 318 317 313 314 320 327 328 327 325 324 323
292 292 292 292 293 293 293 292 292 292 292 292 292 293 293 291 291 290 290 289 289 288 289 289 289 290 291 292 292 294 295 296 298 296 296 295 293 294 300 304 307 309 312 313 315 316 318 321 323 314 305 304 304 304 304 302 306 324 327 326 327 326 322 328 325 318 326 325 323 322 321 320 321 321 319 318 318 318 317 317 324 326 326 324 323
291 291 291 292 292 292 292 292 292 292 292 292 291 292 292 291 290 290 289 288 287 287 287 288 288 289 290 291 293 294 297 299 299 298 294 293 293 292 294 299 304 308 310 312 314 316 318 320 322 316 306 303 302 303 303 303 300 313 324 313 311 308 322 326 327 324 325 324 323 321 321 320 320 320 320 320 320 320 320 319 318 321 324 326 325
291 291 291 291 291 291 292 291 291 292 292 292 291 291 290 289 289 289 288 287 287 286 286 287 287 288 289 291 292 293 294 296 296 295 293 292 291 291 291 292 292 297 302 305 310 314 318 321 322 313 305 303 302 302 302 303 303 306 305 305 304 302 307 323 321 324 323 322 322 321 321 321 320 320 320 321 322 322 321 319 318 318 319 322 325
290 291 291 290 290 291 291 291 291 291 291 291 290 290 289 288 288 288 287 286 286 285 286 286 286 287 287 289 290 290 291 294 293 292 292 291 291 291 290 290 291 295 300 305 309 313 316 319 318 308 305 302 299 296 295 298 305 300 298 298 300 302 311 314 318 322 319 319 319 320 320 321 321 321 320 321 320 319 320 320 319 319 319 320 322
290 290 289 289 289 290 291 291 291 290 290 290 290 289 288 288 287 287 287 286 285 284 285 286 286 286 287 287 287 288 290 291 291 291 290 291 291 291 290 290 291 291 294 300 304 308 304 296 293 293 291 291 292 293 293 293 292 293 295 295 303 309 312 314 316 317 317 318 318 319 320 318 319 319 318 318 315 317 315 318 320 321 322 322 323
290 289 289 289 288 290 290 290 290 290 290 290 290 289 288 288 287 286 286 285 284 284 284 285 285 285 286 286 286 287 289 289 289 289 291 292 292 292 292 292 294 293 295 297 292 291 291 292 293 294 295 296 298 297 296 295 293 294 294 298 301 303 307 311 311 313 312 310 308 307 306 307 308 310 311 313 311 309 310 314 317 317 319 319 319
290 288 287 287 288 288 289 290 289 289 289 289 289 289 289 288 287 286 285 284 284 284 284 284 284 285 285 285 286 287 287 288 287 288 289 290 292 295 300 300 298 297 299 300 298 297 295 295 293 292 292 292 292 292 293 293 294 295 295 296 297 298 297 298 300 301 301 302 301 301 302 303 304 304 304 304 303 304 306 308 313 315 315 315 315
288 286 287 287 288 288 288 289 289 288 288 288 287 288 288 288 286 285 285 284 283 283 283 284 283 284 284 285 285 285 286 286 286 287 288 289 290 293 296 297 296 296 295 296 296 297 296 294 294 295 295 294 294 293 292 292 292 291 292 293 294 295 296 297 296 296 297 298 299 299 298 299 298 300 300 300 300 301 303 305 306 309 310 312 311
288 286 286 286 287 289 288 288 289 288 287 287 287 288 288 287 286 286 287 287 285 284 284 284 285 285 285 285 284 283 284 285 286 287 288 288 288 289 290 292 293 293 291 290 293 293 292 291 291 291 290 289 289 289 290 289 289 290 290 291 291 292 292 291 291 291 293 294 294 294 295 296 296 297 298 297 298 298 300 302 303 305 304 304 301
287 286 287 286 287 287 287 287 288 288 287 286 285 286 287 288 288 286 286 287 287 286 286 284 285 285 285 286 286 284 284 285 287 287 287 287 288 288 288 288 289 290 289 289 290 288 287 287 287 287 287 287 287 287 287 287 287 287 287 288 289 289 289 289 290 290 290 291 292 292 292 293 293 294 294 295 296 297 297 296 299 300 299 299 298
288 285 287 287 287 288 287 286 287 286 286 285 285 284 284 286 287 288 287 287 286 286 286 286 286 286 285 284 286 286 286 286 286 287 287 286 287 287 287 287 287 288 288 287 286 285 284 283 284 284 285 285 285 285 285 285 285 286 285 286 287 287 287 288 288 289 289 289 289 290 290 291 291 292 291 292 293 294 295 296 297 297 296 296 296
287 286 285 286 288 287 287 286 286 285 285 285 284 283 283 282 284 286 287 286 286 286 286 285 285 285 285 285 285 284 285 285 286 286 286 286 285 286 286 287 287 286 285 286 283 282 283 282 282 282 283 282 283 284 284 284 284 284 284 284 284 285 285 286 287 288 288 288 288 287 288 289 290 290 290 290 289 292 293 293 294 294 294 294 294
285 285 285 287 287 287 287 286 286 285 284 283 283 283 282 281 281 281 284 286 286 286 286 286 285 285 285 285 285 284 284 284 285 285 285 285 285 285 285 285 285 285 285 283 281 280 281 281 281 281 281 281 281 282 282 283 283 283 283 283 282 283 284 285 287 287 286 287 287 287 288 288 288 288 288 289 290 289 290 291 292 292 293 292 291
286 286 287 286 285 286 285 285 285 284 284 283 282 282 282 282 281 281 281 282 283 284 285 285 285 285 284 284 284 283 283 283 284 284 284 285 284 284 284 283 284 284 282 280 280 279 280 279 279 280 280 280 280 281 281 281 281 281 281 282 282 282 283 284 284 284 285 286 286 286 286 287 287 288 288 289 289 289 289 288 290 290 290 290 290
285 283 282 285 284 285 285 285 284 284 283 282 282 282 281 281 281 281 280 280 280 279 280 282 284 284 283 283 283 283 282 282 283 283 283 283 283 283 282 281 279 280 280 279 279 278 278 278 278 279 279 279 279 279 279 279 280 280 280 280 280 280 280 280 281 282 283 284 284 285 285 286 287 287 287 287 287 287 287 287 288 288 288 288 288
285 285 285 284 285 285 284 284 284 283 282 282 282 281 281 280 280 279 280 280 279 279 280 281 281 283 283 283 283 282 282 281 281 281 281 282 281 282 279 278 277 277 278 278 278 278 278 277 277 277 278 278 278 278 278 278 279 279 279 279 279 279 279 279 279 280 281 281 282 283 285 285 286 286 287 287 287 287 287 287 287 287 287 287 287
285 284 284 284 285 285 284 283 283 283 282 282 281 280 280 279 279 279 279 279 279 279 279 280 280 280 281 281 282 281 281 280 280 280 280 280 280 279 277 276 276 275 275 276 276 276 276 276 276 276 276 276 276 277 277 277 277 278 278 278 278 278 278 278 279 279 279 279 280 281 283 284 285 285 286 286 286 287 287 287 287 286 286 286 286
286 286 285 285 285 284 284 283 283 281 281 281 280 280 279 278 278 278 277 278 278 278 278 279 279 278 278 278 282 280 279 279 279 278 278 277 276 275 275 275 275 274 274 274 275 275 274 274 275 274 275 275 275 275 276 276 277 277 277 277 277 277 278 277 277 277 278 278 279 279 280 282 284 285 285 285 285 285 286 286 287 286 286 286 286
286 282 281 281 282 284 284 283 282 281 281 280 280 279 278 278 278 277 277 277 277 277 278 278 278 278 278 279 278 279 278 276 275 274 274 274 274 274 274 273 274 273 274 274 274 274 274 273 274 274 274 274 274 275 275 275 276 276 276 276 276 276 276 276 276 276 276 277 277 279 279 280 282 284 284 284 285 285 286 286 286 286 286 286 286
287 285 283 281 284 284 283 282 281 281 280 280 279 279 278 278 277 277 277 277 277 277 277 277 277 278 279 279 278 278 276 275 274 274 273 273 272 272 272 272 272 272 272 273 273 273 273 273 273 273 273 273 273 274 274 275 275 275 275 275 274 274 275 275 275 275 275 276 277 277 278 279 280 282 283 284 284 285 285 285 286 286 286 286 286
288 286 284 283 282 283 282 282 282 281 280 280 279 279 278 278 278 277 277 277 277 276 277 276 277 278 280 280 280 278 276 275 275 274 273 273 272 272 271 271 271 271 272 272 272 272 272 272 272 272 272 272 273 273 274 274 274 274 274 274 274 273 274 274 274 274 275 275 276 277 277 278 279 280 281 283 284 284 284 285 285 286 286 286 287
286 286 286 284 283 283 282 281 281 281 280 280 279 279 279 278 278 278 277 277 276 276 276 276 276 277 279 280 279 279 277 276 276 275 274 273 272 272 272 271 271 271 271 271 271 272 272 272 272 272 272 272 272 272 273 273 273 273 273 273 273 273 273 273 274 274 274 275 276 276 277 278 279 280 281 283 283 283 283 284 284 285 286 286 286
285 286 286 284 284 283 282 282 281 281 280 280 279 278 278 278 278 278 277 277 277 277 276 276 276 277 277 276 277 277 277 276 275 275 274 273 273 272 272 271 271 271 271 271 271 272 271 271 271 272 271 271 272 272 272 272 272 272 272 272 272 272 272 273 273 273 274 275 275 276 277 278 278 280 281 282 282 282 283 283 283 284 285 285 286
284 284 284 284 283 282 282 281 281 280 280 279 279 279 279 279 278 278 278 277 277 277 277 277 277 276 277 277 276 276 276 275 275 274 274 274 273 272 272 272 272 271 271 271 271 271 271 271 271 271 272 272 272 272 272 272 272 272 272 271 271 271 272 272 272 273 274 274 275 276 277 278 279 280 280 281 282 281 282 282 282 283 284 284 285
284 284 283 283 282 282 281 281 281 280 279 279 279 279 279 278 278 278 278 278 277 277 277 277 277 277 276 276 276 276 276 275 275 275 274 274 273 273 273 272 272 271 271 271 271 271 271 271 270 270 270 271 272 271 272 272 272 272 272 272 271 271 272 272 273 274 275 275 275 276 276 277 278 279 280 281 281 281 281 281 281 282 283 283 284
283 283 283 282 282 281 281 281 280 280 279 279 279 279 278 278 278 278 278 278 277 277 277 277 277 276 276 276 276 276 276 276 275 275 275 275 274 274 273 273 272 272 271 271 271 271 271 270 270 270 270 271 271 272 272 272 272 272 272 272 272 273 273 273 274 274 275 275 275 276 277 278 279 279 280 280 281 281 280 281 281 281 282 282 283
283 282 282 282 282 281 281 280 280 279 279 279 279 278 278 278 278 278 277 277 277 277 277 277 277 276 276 276 276 276 276 276 275 275 275 275 274 274 274 273 273 272 272 272 271 271 270 270 270 270 270 271 271 271 272 272 272 272 272 272 272 272 272 273 275 276 276 276 277 277 278 278 279 279 280 280 280 280 280 280 280 280 281 282 283
282 282 282 281 281 281 280 280 280 278 279 279 279 279 278 278 278 278 278 277 277 277 277 277 277 277 276 276 276 276 276 276 276 276 275 275 275 275 274 274 273 273 272 272 272 271 271 271 271 271 271 271 271 271 271 271 272 272 272 272 272 271 271 272 276 276 276 277 278 278 279 279 280 280 280 280 280 280 280 280 280 280 281 282 283
282 282 281 281 281 281 280 280 279 280 279 279 279 278 278 278 278 278 277 277 277 277 277 277 277 276 276 276 276 276 276 276 275 275 275 275 275 275 275 274 274 273 272 272 272 271 271 271 271 271 271 271 271 271 271 271 271 271 271 271 270 269 270 270 273 274 274 278 279 279 280 280 280 280 280 280 280 281 280 281 281 280 281 282 283
282 281 281 281 281 280 280 280 280 280 279 279 279 278 278 278 278 277 277 277 277 277 277 277 277 276 276 276 275 275 275 275 275 275 275 275 275 275 275 274 274 274 273 272 272 272 271 271 271 270 270 270 271 271 271 271 270 271 271 270 268 269 269 270 271 271 274 277 278 279 280 280 281 281 281 281 281 281 280 280 281 281 281 282 283
281 281 281 281 281 280 280 280 279 279 279 279 279 278 278 278 278 277 277 277 277 277 277 277 277 276 276 276 276 276 275 275 275 275 275 275 275 275 274 274 274 274 273 273 273 272 272 271 270 270 270 269 270 270 270 270 270 270 269 268 268 269 269 270 272 272 272 274 278 279 279 279 280 280 280 281 281 280 280 280 281 281 281 282 282
Wind_Speed
5 5 5 5 6 8 9 8 9 9 10 10 10 11 10 10 10 10 10 10 10 11 12 11 11 11 11 11 12 12 11 12 10 9 10 11 11 11 11 11 12 12 12 13 12 13 13 14 14 14 12 11 10 10 10 11 11 10 10 10 10 9 9 10 13 15 7 5 5 6 5 7 5 7 8 7 6 6 8 8 9 7 8 7 8
5 6 5 5 7 8 8 8 8 9 10 11 11 10 10 10 10 10 11 11 10 11 12 11 10 11 11 12 12 12 12 12 12 9 10 10 10 9 11 12 12 13 12 14 14 12 13 14 13 13 13 14 12 12 10 11 9 9 9 11 9 10 10 9 13 12 14 5 7 4 6 6 11 7 9 8 8 6 7 7 7 8 7 7 7
6 5 6 6 7 7 8 8 8 9 10 11 11 11 11 10 10 10 10 10 10 10 11 11 12 11 11 11 12 12 11 11 11 11 11 12 12 12 11 11 12 13 13 13 13 12 13 14 14 13 10 11 12 12 11 11 9 10 11 10 11 11 11 12 12 12 13 12 8 9 7 5 10 8 8 7 8 8 8 7 7 6 6 7 7
6 6 6 7 7 8 8 8 9 9 10 10 12 12 12 11 9 10 11 10 10 10 10 11 12 12 11 12 12 12 12 11 10 10 11 12 13 13 13 11 11 12 13 13 12 12 13 13 14 14 13 13 12 12 11 11 11 11 12 11 11 12 11 11 13 12 11 11 9 9 9 10 9 6 6 6 8 7 7 7 5 6 7 7 8
6 6 6 7 8 7 9 8 8 9 10 9 11 12 12 11 9 10 10 10 9 9 9 9 11 12 11 12 11 11 11 11 10 10 11 11 12 12 13 12 12 13 13 13 12 13 13 14 14 14 13 13 12 12 11 13 11 11 11 11 11 10 9 10 12 11 11 12 11 7 7 9 8 6 6 7 6 7 6 7 7 8 8 7 6
6 6 6 7 8 8 8 8 8 9 10 10 10 11 12 12 13 12 11 9 8 8 9 11 11 12 12 12 12 11 11 11 10 10 11 11 11 12 12 12 12 12 12 12 13 13 13 13 14 14 13 13 13 13 12 14 12 12 13 11 11 10 11 11 11 11 11 12 12 11 7 10 6 7 6 7 8 7 6 6 6 6 6 6 7
6 6 7 7 8 8 8 8 8 9 9 9 9 10 11 11 12 13 12 11 10 9 8 10 11 13 13 12 12 11 11 10 8 9 10 11 11 12 12 13 13 13 13 14 13 13 14 13 14 14 14 13 14 14 13 14 12 13 13 13 12 11 11 11 11 11 12 12 12 12 11 8 10 10 6 8 8 9 10 7 8 5 6 7 7
6 7 7 8 8 8 8 8 8 9 9 9 9 10 10 10 10 11 12 12 10 10 10 10 11 11 12 13 11 8 10 9 7 7 8 9 9 11 12 12 13 13 12 14 14 14 14 14 14 15 15 14 14 14 14 13 11 13 12 12 12 12 12 11 11 11 11 12 11 9 10 10 9 10 3 4 6 6 6 7 10 8 7 7 8
7 7 7 8 8 8 8 8 7 8 9 10 10 10 10 10 10 10 11 12 10 10 10 10 11 12 12 11 11 11 9 7 6 7 8 9 9 12 12 13 13 14 14 13 13 13 13 13 14 15 16 17 18 16 15 13 11 12 12 12 13 12 12 12 11 11 11 11 11 10 10 10 9 8 9 9 10 10 7 9 11 7 6 7 7
7 8 8 8 8 8 9 9 9 8 9 9 9 9 9 9 10 10 11 11 11 10 10 11 10 11 12 11 10 8 7 6 7 11 9 8 10 10 11 12 12 12 14 14 14 15 16 15 14 19 19 19 19 19 19 18 18 15 13 13 13 13 13 13 12 11 11 12 12 11 11 11 10 11 11 12 10 7 6 8 11 7 6 8 7
7 7 9 8 8 9 9 9 9 9 9 9 8 9 9 9 10 11 11 10 11 12 10 10 10 10 11 11 10 9 7 6 9 10 12 11 7 8 9 12 12 12 11 12 15 14 11 13 12 15 18 18 18 20 19 19 18 19 19 19 16 14 13 14 14 13 12 12 12 12 12 12 14 10 11 10 9 10 10 9 9 7 7 8 10
7 8 8 8 8 9 9 10 10 9 9 9 10 11 10 10 10 11 10 11 11 10 11 11 10 10 10 10 10 9 9 10 12 11 11 11 8 6 6 8 10 11 12 12 11 13 14 13 13 12 13 14 14 15 17 19 19 19 21 23 23 23 21 17 15 13 14 12 13 14 12 13 14 11 10 9 10 8 9 8 9 8 7 9 11
7 8 8 8 9 9 9 10 10 10 10 10 10 10 11 11 11 11 12 10 10 10 10 10 10 11 10 12 11 11 10 11 12 12 12 11 11 8 6 6 7 11 12 13 13 12 11 11 13 12 12 18 17 16 15 15 17 22 22 23 24 23 23 24 23 18 14 15 15 14 13 13 15 13 10 11 8 11 10 8 8 9 9 9 10
7 8 8 8 9 9 9 11 11 10 10 10 11 10 11 11 11 10 10 10 10 11 10 10 9 10 10 11 11 11 11 12 14 13 12 12 12 9 7 8 6 8 12 13 13 14 13 12 10 11 13 14 14 15 15 15 12 12 14 15 16 19 19 22 25 26 22 16 15 16 15 13 14 12 11 11 10 12 12 13 12 12 9 10 11
7 7 8 8 8 8 9 10 11 10 10 11 11 11 12 11 10 10 10 9 9 10 10 11 9 9 10 9 10 11 10 14 14 14 14 14 13 10 8 8 7 8 10 12 13 13 14 14 14 13 11 10 10 11 13 13 12 12 13 15 16 16 15 15 17 15 16 15 15 16 16 14 13 14 10 10 13 12 12 13 14 12 9 6 6
7 7 8 8 8 8 9 10 10 10 11 11 11 12 12 12 11 11 11 10 10 11 10 10 11 11 9 9 9 12 11 12 13 14 16 16 14 8 8 7 9 9 9 10 12 12 12 13 13 13 13 14 15 19 19 15 13 14 14 15 15 15 15 16 20 20 19 17 16 17 16 16 15 14 11 10 10 10 10 9 4 4 6 7 10
7 7 7 8 9 9 9 11 12 12 12 12 12 12 13 13 11 9 10 10 11 11 12 12 11 12 12 12 12 13 12 12 13 14 15 16 12 7 8 7 8 9 9 9 9 11 12 13 13 12 13 13 16 16 17 17 14 14 13 13 14 14 14 13 18 21 22 23 21 20 21 21 18 16 14 17 14 12 8 8 9 7 8 11 11
6 7 7 8 9 9 10 12 12 12 11 12 13 12 12 11 10 10 11 12 12 11 12 12 12 11 12 12 11 13 14 14 14 14 16 17 13 9 8 7 9 10 10 10 9 10 13 17 17 14 14 15 17 17 19 17 15 16 16 15 15 14 13 12 11 13 19 21 21 17 17 18 18 16 14 15 17 13 11 12 11 9 12 10 12
6 7 8 8 8 9 10 11 11 11 12 12 12 12 11 11 11 10 10 11 11 10 12 12 12 12 11 12 15 14 13 15 15 14 15 15 13 8 9 9 10 10 10 10 10 10 11 13 19 18 16 16 19 17 19 17 16 16 16 16 16 16 14 12 13 12 10 10 9 9 11 16 16 14 13 16 16 14 14 14 10 11 12 10 10
6 6 7 7 7 9 9 10 10 11 11 12 11 11 10 9 9 11 11 10 11 11 12 12 13 12 11 11 11 11 12 14 14 15 15 16 16 10 10 11 12 11 9 9 10 10 10 11 13 17 20 21 21 21 20 21 18 16 15 15 16 17 13 13 14 12 11 11 12 11 13 13 11 11 9 10 11 10 11 11 11 11 11 11 10
5 6 6 6 8 9 8 9 10 10 10 10 11 11 9 9 10 11 12 12 12 12 13 12 12 12 10 10 10 10 10 12 12 15 14 8 7 6 7 8 9 10 10 11 10 11 10 10 11 14 18 19 20 22 20 19 20 17 15 14 14 14 13 12 12 13 13 13 10 9 9 9 9 9 9 10 11 12 12 13 12 12 12 11 11
5 6 7 7 8 8 8 9 9 8 9 10 10 10 9 10 10 11 10 12 14 14 13 13 12 12 10 10 10 11 12 15 12 11 11 13 12 10 8 9 9 10 11 11 11 11 13 12 11 13 16 17 18 20 22 20 20 16 17 19 18 17 15 13 11 10 10 10 8 8 8 8 8 9 9 10 11 12 12 12 13 12 11 11 12
6 6 6 6 7 8 8 10 9 8 8 9 10 10 10 11 12 11 11 12 13 14 13 12 12 12 11 9 9 9 10 11 13 12 14 15 15 14 14 12 11 8 8 10 12 12 12 11 12 16 16 16 17 19 21 24 18 15 21 19 15 12 13 10 9 10 10 8 8 9 9 9 9 10 10 10 10 9 8 8 9 11 11 11 11
5 5 5 6 6 7 9 8 8 8 10 9 10 10 10 11 11 10 11 11 11 12 11 12 12 12 11 10 10 10 10 9 11 15 14 16 15 15 15 14 13 9 9 10 11 11 12 12 11 14 15 13 9 5 6 7 7 9 10 9 2 2 1 2 4 9 9 8 9 9 8 8 9 9 9 8 6 5 7 8 8 9 9 9 10
4 5 5 6 6 7 8 7 8 9 9 9 9 9 11 11 11 10 11 11 12 12 11 11 11 11 11 11 11 11 10 9 9 12 18 17 16 15 14 13 14 14 10 10 11 11 10 6 3 6 10 14 14 12 11 11 11 8 4 7 8 6 5 6 7 5 5 6 7 6 4 4 3 4 3 3 4 4 3 5 6 7 8 9 9
4 4 4 5 6 6 7 7 7 9 8 8 8 8 9 11 10 10 10 11 11 11 11 11 11 11 10 11 11 11 10 9 10 10 12 14 13 14 12 5 3 5 6 3 2 3 6 10 12 13 13 11 11 9 9 9 13 16 15 11 7 5 2 2 3 4 2 3 6 6 5 4 4 5 6 6 6 5 4 2 3 5 6 6 6
3 4 5 5 5 5 6 6 7 7 8 8 7 8 9 8 8 10 10 11 12 12 11 11 11 11 10 11 11 10 9 10 10 10 10 9 8 9 5 1 4 7 7 6 7 7 10 10 11 14 14 16 15 13 12 9 10 10 9 9 8 8 9 9 8 9 8 7 7 7 6 5 4 8 8 6 6 5 4 4 1 2 5 4 3
3 4 5 4 5 5 5 8 8 6 7 7 6 7 7 8 9 10 10 12 12 11 11 11 11 11 10 9 9 9 11 10 11 12 12 10 9 8 6 6 7 6 7 8 9 8 6 7 9 9 10 10 9 8 10 10 10 10 9 9 9 10 11 14 13 10 8 7 6 6 6 7 9 6 6 7 6 5 6 6 4 4 3 2 3
2 4 3 4 4 4 5 5 5 5 6 6 6 5 6 7 8 9 7 7 11 11 10 10 11 10 8 9 11 11 10 12 13 16 13 14 10 8 7 7 6 7 14 16 11 8 7 8 9 11 11 12 10 8 6 8 10 10 12 10 9 10 10 11 11 9 7 8 9 8 7 8 7 7 7 8 8 8 7 6 8 6 7 9 10
2 3 3 4 4 4 5 5 5 5 5 5 6 7 8 8 5 6 7 11 15 18 16 12 12 10 9 9 9 11 11 11 19 21 17 13 16 22 21 20 15 14 21 22 12 9 10 10 10 9 10 9 8 8 8 8 10 11 10 11 12 11 10 10 10 9 9 10 8 9 8 8 8 8 8 8 6 8 9 9 8 7 10 9 9
1 2 3 4 4 4 4 5 5 4 4 4 4 5 7 8 7 6 8 9 13 17 19 20 20 19 15 10 12 18 20 21 22 19 19 22 25 26 24 22 21 18 13 15 16 13 11 11 10 10 10 8 9 7 7 10 10 9 10 8 9 11 11 11 10 8 10 10 10 9 8 9 8 7 7 7 7 7 8 8 8 10 10 8 7
1 1 2 3 4 3 4 4 4 4 5 4 4 4 5 6 8 7 7 8 11 15 17 21 21 21 24 22 16 11 16 21 21 22 22 26 26 22 20 19 20 24 18 14 15 11 10 9 11 11 9 10 9 8 9 10 10 10 9 10 12 11 11 11 9 9 9 10 10 10 9 9 7 7 8 8 8 8 8 9 9 9 8 7 7
2 0 1 1 3 3 4 4 4 5 5 5 5 5 5 5 7 8 9 6 5 11 15 19 22 22 23 24 24 20 19 20 23 24 25 23 19 18 23 24 21 12 22 19 12 11 10 10 11 11 10 10 10 10 10 10 10 10 11 11 11 10 10 9 9 10 11 11 9 8 7 7 7 8 7 7 8 8 9 8 7 7 7 7 7
3 2 1 0 1 3 4 4 4 4 4 4 4 5 5 5 5 6 7 8 8 6 9 17 20 20 20 23 23 23 23 24 24 24 22 21 17 15 15 15 23 28 25 13 11 11 10 10 10 10 10 11 10 10 10 11 10 9 10 9 8 8 8 7 9 10 9 10 10 8 9 8 8 8 8 8 8 8 9 8 8 8 8 8 7
5 3 3 2 2 2 2 3 4 4 4 4 5 5 5 5 5 5 6 7 7 7 9 9 13 19 15 14 21 23 23 24 24 24 25 22 21 9 8 16 17 15 16 13 12 11 11 10 9 10 10 11 11 11 11 11 9 9 9 9 9 9 10 11 10 9 8 8 9 9 8 8 9 8 8 8 8 8 7 8 8 7 6 6 6
5 4 2 2 3 3 3 3 3 4 4 4 4 4 4 4 5 5 5 5 6 7 7 7 5 8 16 20 22 21 22 23 23 24 24 23 18 12 17 13 13 11 10 9 10 9 9 9 9 9 9 8 7 9 10 9 9 9 9 9 10 10 10 10 10 10 10 9 8 9 9 9 9 7 8 9 9 8 7 7 7 6 7 6 6
5 5 4 3 4 4 4 3 3 3 3 4 4 4 5 5 5 4 5 6 6 6 7 7 7 8 10 12 17 17 19 18 19 22 24 23 24 18 14 11 9 9 11 11 10 10 11 11 10 11 11 11 11 9 8 8 8 8 8 9 9 9 10 9 9 9 9 9 9 9 9 9 9 8 7 8 7 7 7 7 6 6 6 6 5
5 6 4 5 4 5 4 4 3 3 4 4 4 4 5 5 5 5 6 6 7 7 8 9 9 9 10 9 15 10 10 9 14 19 18 19 17 13 10 9 11 10 10 10 10 9 9 10 10 10 10 9 9 8 8 8 8 9 10 9 9 10 12 9 12 11 10 9 8 9 8 8 8 8 8 8 9 8 8 8 8 7 7 7 7
4 6 8 7 5 5 5 4 4 4 4 4 4 5 5 5 5 5 5 5 5 6 6 7 9 9 9 8 8 9 8 11 13 12 11 11 10 10 10 10 10 10 10 9 9 9 9 9 9 9 9 8 8 8 8 8 9 10 10 9 9 9 10 10 10 9 9 8 8 8 8 8 8 8 8 8 8 8 8 8 7 7 7 7 6
6 5 6 8 5 5 5 5 4 4 4 4 4 4 4 5 5 5 4 5 6 5 6 7 7 8 8 9 9 8 10 10 10 9 9 10 9 9 10 10 10 10 10 10 10 10 10 9 9 9 9 9 9 9 9 9 9 9 8 9 9 9 10 9 8 9 9 8 8 9 9 9 9 8 8 9 8 8 8 8 8 7 6 6 5
6 6 5 6 7 6 5 5 4 4 4 4 4 4 4 4 4 4 4 5 5 6 6 5 6 6 8 11 16 13 9 9 8 9 9 8 9 9 10 9 9 9 9 9 9 9 9 9 9 9 9 9 8 8 7 8 8 8 9 8 9 9 8 9 9 8 8 8 8 8 8 8 8 8 8 9 9 8 8 7 7 7 7 6 6
6 6 6 6 7 6 6 5 5 4 4 4 4 4 4 4 3 4 4 4 5 5 5 6 5 5 10 17 14 14 9 8 7 7 8 8 8 9 9 8 8 8 7 8 7 7 7 7 8 9 8 8 8 8 8 9 9 9 9 9 9 8 7 7 7 7 7 6 7 8 7 7 8 7 7 8 7 7 7 8 7 7 7 7 7
6 6 7 7 7 7 7 6 6 5 5 5 4 3 3 4 3 3 4 4 4 4 4 4 3 5 6 9 9 9 7 7 6 7 7 7 7 8 7 7 7 7 7 7 7 7 7 7 7 8 9 9 9 8 9 9 9 9 9 10 10 9 8 8 8 8 8 7 7 8 7 7 8 8 8 8 7 7 7 7 8 7 7 7 7
5 5 6 6 6 6 6 7 6 6 5 5 4 4 3 3 3 4 4 4 4 4 4 4 4 4 4 5 5 5 5 5 5 6 6 7 7 7 6 6 6 7 6 7 7 7 6 6 7 7 9 9 9 10 9 9 9 10 10 9 9 8 7 8 8 8 8 7 7 7 7 8 8 8 9 9 8 8 8 9 8 8 8 7 8
5 6 6 6 6 6 6 6 7 7 6 6 5 4 3 3 3 3 3 3 3 4 3 4 3 4 4 4 4 5 5 5 5 6 5 5 5 5 5 5 5 6 6 6 5 5 6 6 6 6 7 9 9 9 10 10 10 9 8 8 7 7 7 7 7 6 6 6 5 6 6 6 7 8 8 8 8 8 8 9 8 8 8 8 8
6 6 6 6 6 6 7 6 7 7 7 7 6 5 3 3 3 3 3 3 3 3 3 4 4 4 4 4 4 4 4 5 5 5 5 5 4 4 4 4 4 5 5 5 5 6 6 6 6 6 7 7 9 9 8 9 8 8 8 9 8 7 6 6 5 5 5 5 4 4 5 5 6 7 8 7 8 8 7 8 7 7 7 7 8
7 6 6 6 7 7 6 7 7 7 7 7 6 6 5 4 3 3 3 3 3 3 3 3 3 4 4 4 4 4 4 4 4 4 5 5 5 4 5 5 5 5 5 6 6 6 6 6 6 6 6 6 6 9 9 8 8 8 8 8 8 8 7 7 5 5 5 5 4 4 5 5 7 7 8 8 8 8 8 8 8 8 8 7 7
6 6 6 6 6 7 6 6 7 7 7 7 7 7 6 5 4 4 3 3 3 3 3 3 3 3 3 3 3 4 4 4 4 4 4 4 5 5 5 5 5 5 5 6 6 6 5 6 6 6 5 6 6 7 7 8 10 10 10 10 10 10 11 10 7 7 7 6 5 5 5 6 7 8 8 9 8 8 9 9 9 8 8 7 6
6 6 6 7 7 7 7 7 7 7 7 7 7 6 6 6 5 4 4 3 3 3 2 3 2 2 3 3 3 3 3 4 4 4 4 4 5 5 5 6 6 6 6 5 6 6 6 6 6 6 6 6 7 7 7 8 10 11 9 9 12 16 14 13 8 8 8 6 7 7 7 7 8 7 8 9 10 9 9 9 9 9 9 8 7
6 6 7 7 7 6 6 6 6 6 6 7 7 7 6 6 5 5 5 4 3 3 3 3 3 2 3 3 3 3 3 3 3 3 3 3 4 4 4 5 5 6 6 6 6 7 7 7 7 7 7 7 7 8 8 10 11 11 11 11 15 16 16 15 13 14 10 6 6 7 8 8 8 7 9 9 10 10 10 10 10 9 9 9 8
6 6 6 7 7 6 7 7 6 6 6 7 7 7 7 6 6 6 5 5 5 4 4 3 3 3 3 3 3 3 3 3 3 3 3 3 3 3 4 4 4 4 5 5 5 5 6 6 6 6 6 7 7 7 7 7 9 10 11 13 14 15 15 14 10 12 13 9 5 5 6 8 9 8 9 9 8 8 8 9 9 9 9 8 8
Wind_Direction
297 293 304 307 308 309 309 312 311 308 306 300 294 290 288 285 284 280 281 277 276 276 277 274 273 274 276 276 277 273 268 261 249 242 236 234 233 234 232 227 226 231 231 230 227 231 229 229 227 226 225 224 225 227 224 222 220 219 220 221 224 216 215 226 243 260 247 215 209 224 198 190 221 198 220 213 217 216 220 223 226 221 226 227 232
298 300 303 300 306 305 307 307 306 309 307 303 295 289 285 285 283 283 280 277 272 272 273 273 271 270 270 271 271 269 267 262 255 242 238 236 231 228 230 228 226 229 228 230 229 227 228 231 229 227 225 227 224 229 221 224 219 213 216 220 220 222 209 219 241 250 261 215 240 205 228 197 244 190 221 218 223 213 222 222 223 222 227 227 230
296 293 296 302 300 302 302 303 305 308 310 308 303 297 291 287 286 284 281 278 275 270 271 271 270 268 266 265 266 267 265 261 257 250 241 237 236 236 235 232 229 229 230 229 228 224 227 230 229 227 226 224 223 229 225 224 215 215 218 216 222 223 215 216 231 245 250 254 231 239 221 206 223 228 203 217 226 208 220 221 221 219 224 226 232
295 292 291 293 297 301 300 299 302 308 311 311 306 301 297 290 285 285 283 280 277 274 271 271 271 267 264 260 258 258 260 257 252 248 248 245 241 237 234 231 232 232 234 231 227 225 226 226 228 227 225 225 222 224 225 222 219 220 222 220 220 224 221 218 223 236 244 257 235 226 228 229 234 232 221 211 218 218 219 228 215 221 222 219 224
293 288 288 294 297 298 300 299 301 306 309 309 309 308 304 302 297 295 290 284 280 281 285 280 273 266 261 255 255 251 251 250 247 248 248 246 246 243 238 235 231 233 238 238 235 232 231 230 231 228 224 226 225 225 222 221 218 219 223 221 220 222 222 223 227 227 238 244 251 226 217 228 234 220 205 215 220 229 222 221 217 219 223 224 224
291 292 291 294 298 300 300 298 298 302 304 307 309 312 313 311 308 303 297 288 289 293 299 306 301 278 253 251 249 249 247 245 246 248 251 252 252 249 246 240 237 235 235 235 234 235 235 233 234 233 227 224 227 226 223 223 220 221 222 223 221 220 220 225 226 228 230 239 245 249 220 234 233 231 203 204 224 230 223 225 231 225 223 232 223
295 293 292 291 296 300 299 296 296 298 300 299 305 308 306 305 304 303 303 302 298 298 305 304 304 307 306 281 253 248 250 248 247 251 252 249 248 250 246 245 240 236 234 234 232 231 231 233 236 236 233 227 228 228 225 224 222 223 221 222 220 221 220 224 226 227 229 236 240 242 247 230 230 240 209 202 212 227 245 244 242 211 218 222 237
299 295 295 296 296 297 297 295 297 296 297 300 303 303 301 301 302 304 303 297 298 299 301 305 304 306 302 306 306 277 254 249 247 253 257 260 259 254 252 247 245 240 237 235 233 232 230 229 231 235 236 233 231 231 227 228 222 224 221 220 219 218 221 224 225 225 228 233 236 241 238 243 233 240 209 176 221 234 219 228 248 240 224 221 222
298 295 298 298 297 297 301 303 298 300 301 301 301 302 302 300 299 301 304 302 299 297 299 299 301 302 303 303 311 314 311 288 257 243 248 258 260 262 259 252 247 245 240 239 238 237 233 228 228 231 232 233 233 232 232 227 225 226 221 218 219 220 221 223 224 225 230 231 237 236 244 241 235 230 222 217 222 227 201 204 240 237 221 241 238
300 301 300 299 299 304 307 307 305 300 301 297 297 298 299 299 299 300 300 299 297 297 295 295 294 295 297 299 300 302 298 302 324 337 327 298 282 272 263 259 256 250 245 243 240 237 233 226 225 227 229 228 230 231 232 229 228 229 229 227 221 221 221 222 223 225 230 232 232 234 236 243 236 228 230 229 229 221 196 200 236 230 203 246 262
302 300 302 305 307 310 312 308 304 299 296 296 297 298 302 304 303 300 299 299 299 300 296 293 290 288 288 292 298 297 292 291 308 317 318 317 312 301 293 279 262 256 252 246 247 245 240 238 238 232 228 224 227 230 230 227 226 231 230 232 228 225 223 223 225 221 226 231 232 230 232 239 243 228 229 229 214 212 220 206 226 230 203 232 260
304 306 307 309 312 313 309 305 301 299 303 304 307 313 313 311 306 303 301 300 301 300 299 295 292 290 288 289 289 288 287 289 293 294 291 295 302 304 296 298 293 274 256 248 245 247 247 243 237 234 231 226 225 229 230 228 224 225 223 225 225 219 215 217 224 226 223 229 231 230 229 232 244 232 225 218 220 209 212 208 213 226 202 221 245
309 309 313 315 312 309 305 305 312 317 317 315 316 316 313 311 309 306 304 301 298 298 294 293 292 293 290 289 284 282 283 280 280 281 283 291 300 305 289 284 289 292 279 259 250 246 249 247 244 237 238 228 222 224 227 226 218 223 225 227 227 220 215 216 217 220 219 224 229 231 223 229 236 235 212 216 199 215 213 214 218 225 226 227 240
313 311 313 312 311 308 311 322 319 313 312 314 314 311 311 314 312 305 303 302 300 298 295 290 290 287 290 288 286 285 281 279 278 277 280 284 288 296 285 285 281 284 285 277 264 258 254 253 251 248 244 234 227 226 226 224 219 215 226 231 235 234 229 223 220 222 222 224 226 233 231 221 232 234 216 196 190 213 218 229 229 235 223 219 229
311 313 313 312 314 315 324 320 312 308 309 313 312 309 309 313 314 316 311 303 298 294 295 297 290 285 285 283 285 286 283 286 286 286 286 285 284 288 272 274 268 273 277 277 275 262 256 255 252 250 249 247 244 237 231 226 222 219 219 227 233 232 222 222 228 229 227 230 230 234 236 230 228 233 222 192 203 205 209 218 221 226 227 239 260
307 311 314 317 315 316 319 316 311 310 313 314 313 311 310 313 318 320 319 318 313 305 295 291 292 291 288 281 281 287 285 284 284 283 283 282 283 277 275 276 277 271 271 271 269 272 268 258 255 250 247 251 239 223 226 228 229 226 220 221 227 229 228 222 220 219 221 223 225 229 233 233 223 223 219 194 204 208 217 224 209 182 207 222 242
310 311 313 315 319 317 319 322 322 320 319 318 316 314 312 313 319 323 316 314 313 313 312 307 302 299 297 296 290 288 284 279 274 273 273 276 279 270 268 268 266 265 262 261 260 261 259 255 251 251 249 251 246 233 227 222 230 229 228 227 226 227 230 226 225 225 227 231 232 230 234 238 236 227 215 194 199 202 198 199 208 190 205 228 239
309 311 312 313 315 316 324 328 325 324 323 321 318 314 314 313 319 326 318 313 310 309 310 305 301 300 300 300 297 295 291 285 279 275 272 273 269 272 271 268 267 270 268 259 257 257 259 255 252 248 246 245 246 232 221 216 226 230 231 232 232 230 228 220 224 225 227 232 234 234 244 248 248 242 229 218 209 194 192 211 207 198 219 217 234
315 315 314 313 313 320 327 329 328 326 324 322 320 318 318 320 322 322 315 311 307 307 309 306 303 299 295 294 299 296 291 291 288 283 282 280 278 266 266 264 267 263 262 262 254 250 250 252 252 250 248 247 243 235 224 214 225 227 228 229 232 233 229 219 225 222 213 221 232 222 235 244 244 240 233 231 222 209 211 219 209 205 220 220 227
306 303 300 307 311 328 330 330 330 329 326 325 325 321 323 329 322 320 318 316 312 311 310 307 304 300 297 296 297 297 295 293 291 284 277 274 272 272 261 261 260 259 258 258 262 255 249 249 246 240 241 243 243 240 230 214 222 227 226 228 229 232 227 225 227 218 219 219 229 218 219 225 227 234 231 228 226 222 228 223 218 216 223 227 226
314 304 307 307 328 336 337 336 333 331 328 329 328 323 330 328 326 323 322 321 317 313 313 312 309 305 301 299 297 297 295 292 291 281 281 299 322 308 283 259 256 257 261 258 255 260 257 247 246 238 232 233 236 241 238 225 220 226 228 231 227 230 222 226 219 206 223 228 225 222 223 225 223 221 215 218 223 221 220 224 226 223 223 226 229
316 309 311 321 336 342 343 342 339 333 331 332 330 325 335 335 330 326 324 323 321 319 319 318 316 313 309 305 305 304 306 307 300 315 336 325 317 303 285 272 266 267 265 265 262 256 251 248 244 238 231 227 230 235 236 234 228 228 231 231 233 229 223 219 204 209 222 224 222 220 222 218 224 224 222 221 223 222 217 216 220 226 226 224 223
318 313 317 328 342 347 348 347 345 341 336 335 331 332 338 337 334 330 330 329 327 325 324 325 322 319 318 317 319 319 320 312 323 328 321 316 304 293 278 269 270 263 250 254 255 255 257 255 251 242 233 227 226 229 232 233 227 224 233 235 236 244 234 218 191 210 214 210 217 220 217 215 222 225 225 227 227 221 213 212 215 219 223 229 224
316 317 321 332 339 352 353 348 348 346 342 340 337 339 342 340 337 338 338 336 333 330 330 329 328 326 325 329 330 327 318 320 323 322 315 303 298 290 281 270 251 238 242 249 254 260 259 255 254 252 240 233 234 261 291 263 231 228 235 253 236 139 160 316 238 220 207 203 214 220 222 220 227 229 228 230 225 188 197 202 207 208 213 226 230
327 319 331 341 347 347 353 351 351 349 340 341 340 344 345 349 344 344 344 343 339 335 332 333 331 328 327 333 334 328 327 329 325 325 322 311 301 292 280 267 255 236 234 246 256 264 290 334 49 100 101 98 95 86 66 56 61 67 142 187 202 193 181 178 196 202 221 215 222 231 246 261 259 279 273 176 179 184 182 202 204 202 205 214 220
325 324 334 344 339 334 352 352 353 350 341 345 347 349 347 349 348 349 351 348 346 340 337 337 335 334 331 339 337 331 333 334 336 332 328 323 315 302 301 319 307 227 224 320 323 88 98 103 93 90 92 93 87 83 81 69 66 65 57 50 42 28 26 138 116 139 117 73 61 58 38 16 13 1 16 33 48 14 346 302 199 203 201 204 210
318 322 338 338 337 335 345 359 358 352 352 349 349 348 353 354 354 359 358 359 353 347 344 343 342 341 340 341 339 333 336 339 345 340 334 330 324 323 329 132 89 83 71 48 36 37 59 64 78 78 77 70 74 81 78 66 60 56 57 54 50 45 48 48 63 68 61 65 65 56 44 34 29 38 32 37 40 13 335 346 318 213 192 182 165
321 318 331 338 345 344 351 359 360 357 357 350 347 351 356 357 1 5 8 7 357 354 354 354 353 349 345 343 339 338 346 350 349 346 344 342 338 342 352 33 44 48 46 37 37 20 27 42 51 58 65 59 51 51 62 69 68 63 56 55 56 57 61 66 62 57 50 55 61 60 50 42 47 36 40 39 26 6 358 25 26 35 6 130 81
322 320 320 342 356 353 354 348 349 1 360 351 352 345 345 352 350 354 2 13 10 1 358 0 3 355 345 355 355 349 352 355 353 344 348 359 12 7 5 12 38 54 48 45 44 24 27 50 57 55 57 70 60 39 33 55 67 61 60 55 56 58 50 48 51 45 36 49 47 45 47 45 44 36 47 48 29 16 353 30 26 42 48 61 71
326 328 339 350 352 3 359 353 356 5 1 356 348 343 345 346 344 358 349 355 7 12 12 11 9 5 2 5 360 1 2 349 339 350 2 11 36 45 43 38 37 60 66 63 57 51 40 40 37 44 48 44 51 53 30 34 51 57 54 52 57 58 56 56 53 47 47 53 50 49 43 46 44 33 39 49 33 27 21 32 40 35 55 49 58
349 332 355 357 349 355 357 0 358 354 354 356 349 350 340 340 335 348 360 352 10 12 10 11 12 18 23 10 4 6 2 354 353 355 17 28 37 46 46 46 43 47 51 77 59 48 38 41 32 32 29 30 43 40 45 48 44 49 53 53 51 53 53 51 47 51 53 55 50 47 43 46 44 35 32 36 40 33 32 31 43 47 49 45 48
135 339 349 343 342 343 358 358 358 353 354 352 358 357 352 341 336 349 355 3 16 17 11 16 15 18 24 25 22 5 2 3 5 6 22 38 38 38 46 50 56 62 47 57 72 54 42 34 35 28 23 33 31 24 41 51 47 42 39 47 45 36 41 47 37 41 51 52 51 46 41 41 43 42 43 39 40 39 32 34 38 45 48 50 45
156 168 359 2 351 342 352 356 5 5 357 355 357 2 2 356 349 335 347 2 13 24 19 19 18 17 21 23 21 22 18 16 16 18 22 26 34 42 56 53 43 45 65 51 57 56 42 41 42 35 27 33 25 30 36 41 47 45 42 47 48 35 39 37 38 48 50 49 54 51 42 38 39 44 44 41 42 45 41 41 34 41 41 43 38
170 164 171 166 32 360 353 347 5 11 359 359 358 3 4 358 345 338 337 349 355 6 28 23 17 17 18 19 21 21 21 22 24 27 28 24 26 35 44 56 54 48 60 61 43 44 43 44 44 41 37 33 26 23 29 32 32 36 43 46 44 42 38 33 41 40 44 42 45 44 39 35 35 43 43 43 40 41 43 37 31 31 34 31 24
159 163 163 159 133 74 0 353 13 7 10 4 5 7 8 355 353 358 0 357 354 2 358 5 13 16 18 15 17 21 24 25 29 31 31 27 16 356 49 47 38 32 42 45 49 42 37 33 41 41 38 34 26 25 26 22 24 28 33 35 38 38 33 36 36 31 32 31 36 36 33 32 33 36 40 39 37 38 36 37 38 35 34 27 22
144 146 150 135 107 104 70 40 17 28 17 7 5 17 12 12 13 6 357 356 8 4 358 7 1 3 21 24 20 16 21 25 30 35 37 36 26 32 55 42 41 28 35 27 43 46 46 32 25 30 36 31 21 26 22 22 23 28 30 40 37 37 40 38 33 35 35 39 34 31 32 34 30 30 38 46 44 42 39 37 36 32 34 33 19
143 138 130 129 133 118 110 77 53 36 32 16 14 21 30 31 26 18 16 19 16 12 16 356 356 14 25 24 17 11 17 25 29 37 38 36 35 45 54 39 32 32 34 26 25 28 37 29 23 23 24 26 21 19 18 24 26 35 38 42 45 45 42 44 41 38 35 33 30 26 27 30 29 26 27 39 39 39 39 34 35 34 33 21 18
168 147 156 158 133 125 113 95 79 56 41 38 22 23 34 39 33 29 29 24 23 17 19 17 23 26 20 6 3 10 358 358 25 35 29 29 32 30 28 31 32 35 35 33 30 31 35 35 31 31 25 25 22 14 17 25 28 31 35 37 41 45 41 43 40 40 38 40 36 31 25 22 24 23 27 38 33 29 27 27 26 24 22 23 26
179 158 147 144 138 136 130 120 103 83 63 50 36 27 35 35 37 40 37 38 35 29 25 24 27 28 21 5 1 342 5 29 30 30 21 19 22 21 24 26 27 29 30 31 29 36 38 38 32 31 28 25 20 20 21 24 27 32 30 33 34 33 32 31 30 27 27 26 27 27 26 23 19 22 28 30 27 22 23 24 23 23 22 17 18
171 176 152 141 132 134 130 126 120 98 83 74 53 45 42 37 38 45 40 46 43 39 37 31 30 24 17 18 14 2 41 38 38 29 26 24 26 25 27 29 26 25 22 23 25 27 32 31 29 29 25 25 24 24 22 25 28 31 33 35 34 35 35 33 30 27 22 16 20 21 19 16 12 13 24 27 20 15 14 14 15 15 15 14 4
183 167 158 149 141 131 123 117 118 114 111 86 90 69 62 50 47 50 47 45 43 44 40 38 36 16 29 37 37 35 44 46 37 37 32 31 29 32 33 33 31 29 26 29 28 29 31 29 27 28 25 23 23 25 23 27 31 34 36 34 36 37 33 33 30 26 21 20 21 21 18 16 12 12 17 16 11 11 12 8 10 9 9 7 5
164 165 157 149 142 136 133 136 131 121 110 109 86 80 75 65 61 60 55 49 53 47 52 45 35 20 36 40 41 42 47 49 43 43 39 33 34 36 36 36 34 34 33 31 30 34 35 37 43 44 39 32 31 27 28 31 31 34 35 36 37 34 34 29 26 26 22 20 21 21 14 15 16 16 16 14 12 11 12 12 9 8 8 5 5
172 172 162 151 151 150 149 147 141 129 120 113 102 95 79 80 72 66 63 61 55 51 62 57 46 37 37 31 34 35 48 47 45 45 43 40 38 37 37 36 33 33 33 32 29 30 34 37 38 42 40 35 32 29 31 28 29 29 31 30 28 25 21 18 15 16 16 16 15 12 9 11 15 19 18 18 11 11 14 11 10 12 9 6 4
160 162 156 153 147 133 137 139 140 140 132 129 121 112 99 89 70 63 75 66 58 57 62 60 61 50 49 36 39 46 54 52 51 47 42 39 38 37 37 35 33 34 33 34 31 29 31 32 33 38 46 40 36 35 36 33 31 32 30 26 24 18 14 12 11 6 2 0 358 359 359 4 8 15 18 16 12 11 11 13 11 10 8 8 4
150 152 145 144 145 139 142 144 142 136 133 124 112 112 110 106 84 79 66 61 59 59 57 62 58 61 56 53 50 55 58 61 60 61 57 53 53 47 43 41 40 40 42 39 35 31 36 36 37 37 40 44 40 37 37 36 38 39 36 29 24 17 9 3 352 346 342 349 349 350 354 355 3 11 11 8 8 9 10 8 6 5 6 9 7
158 151 145 145 143 144 144 147 148 143 144 142 135 133 128 107 110 106 88 85 75 61 51 46 50 53 56 56 53 57 60 66 66 66 69 66 64 61 57 53 55 53 50 45 37 34 35 34 34 37 33 35 39 42 41 40 38 40 40 36 23 12 358 345 336 333 340 347 339 339 340 349 0 11 7 8 12 11 7 2 2 2 3 359 2
154 152 151 150 152 154 154 150 145 146 143 142 140 139 134 140 133 118 116 108 96 79 72 60 56 52 48 45 46 53 53 58 63 66 63 64 61 58 54 50 52 53 53 51 46 40 37 33 33 36 37 34 36 43 38 37 37 36 36 29 19 6 1 353 347 353 349 340 333 336 348 356 10 15 13 16 17 14 11 9 2 357 356 355 356
160 155 153 148 144 146 149 150 150 154 148 149 148 141 140 142 139 140 139 129 116 103 99 81 75 69 66 56 51 51 48 52 52 55 57 57 54 53 50 50 48 48 49 48 46 42 40 40 35 32 28 23 24 24 23 24 33 33 30 23 17 8 360 358 14 10 6 357 356 1 6 16 20 20 17 18 17 13 14 13 9 4 355 352 354
160 156 150 155 157 157 157 162 162 163 161 156 144 146 145 143 147 148 146 140 135 132 126 116 101 84 78 74 65 63 59 60 57 53 51 48 46 42 42 42 44 41 41 41 40 40 39 36 31 27 26 28 26 25 25 24 23 27 15 14 2 356 2 6 8 5 353 9 21 17 18 22 20 13 16 18 16 12 10 8 7 2 359 355 355
168 163 160 161 163 166 163 160 157 151 155 153 153 151 151 147 148 151 149 143 139 140 137 134 124 120 112 104 90 79 74 73 70 65 60 58 54 53 50 46 43 39 36 34 31 30 29 28 25 25 24 23 23 26 28 29 25 18 15 2 354 1 4 3 7 5 4 1 7 18 22 24 19 10 20 22 20 15 12 7 3 2 0 355 2
166 164 165 167 167 159 154 151 151 158 156 156 160 157 159 159 158 155 153 154 153 153 149 145 135 132 121 113 109 103 90 81 73 69 67 60 61 57 55 53 49 47 46 43 40 37 34 34 32 26 29 26 25 26 25 21 20 10 358 356 3 6 8 8 6 356 359 357 4 5 20 23 24 15 17 19 18 16 7 5 1 2 1 3 5